Weather History for Somerset, KY

Change the Weather History Date:

Friday, September 6, 2013

  Actual Average Record
Temperature  
Mean Temperature 70 °F -  
Max Temperature 82 °F 84 °F 102 °F (1998)
Min Temperature 57 °F 59 °F 35 °F (2008)
Cooling Degree Days 4    
Growing Degree Days 20 (Base 50)    
Moisture  
Dew Point 61 °F    
Average Humidity 76    
Maximum Humidity 100    
Minimum Humidity 39    
Precipitation  
Precipitation 0.00 in - - ()
Sea Level Pressure  
Sea Level Pressure 30.18 in    
Wind  
Wind Speed 1 mph (East)    
Max Wind Speed 8 mph    
Max Gust Speed -    
Visibility 9 miles    
Events      
Averages and records for this station are not official NWS values.
T = Trace of Precipitation, MM = Missing Value Source: NWS Daily Summary

Daily Weather History Graph

Daily Weather History Graph

Search for Another Location

Airport:

Trip Planner

Search our weather history database for the weather conditions in past years. The results will help you decide how hot, cold, wet, or windy it might be!

Date:

Astronomy

Sep. 06, 2013 Rise Set
Actual Time 7:13 AM EDT 7:59 PM EDT
Civil Twilight 6:47 AM EDT 8:25 PM EDT
Nautical Twilight 6:15 AM EDT 8:56 PM EDT
Astronomical Twilight 5:43 AM EDT 9:28 PM EDT
Moon 8:21 AM EDT (9/6) 8:26 PM EDT (9/6)
Length of Visible Light 13h 38m
Length of Day
12h 45m
New Moon, 1% of the Moon is Illuminated
Sep 6
New Moon
Sep 12
First Quarter
Sep 19
Full
Sep 26
Last Quarter
Oct 4
New

Hourly Weather History & Observations

Time (EDT) Temp. Heat Index Dew Point Humidity Pressure Visibility Wind Dir Wind Speed Gust Speed Precip Events Conditions
12:15 AM 62.6 °F - 62.6 °F 100% 30.21 in 10.0 mi Calm Calm - N/A   Clear
12:35 AM 62.6 °F - 62.6 °F 100% 30.21 in 10.0 mi Calm Calm - N/A   Clear
12:55 AM 62.6 °F - 62.6 °F 100% 30.21 in 10.0 mi Calm Calm - N/A   Clear
1:15 AM 62.6 °F - 62.6 °F 100% 30.21 in 10.0 mi Calm Calm - N/A   Clear
1:35 AM 60.8 °F - 60.8 °F 100% 30.21 in 10.0 mi Calm Calm - N/A   Clear
1:55 AM 60.8 °F - 60.8 °F 100% 30.21 in 10.0 mi Calm Calm - N/A   Clear
2:15 AM 60.8 °F - 60.8 °F 100% 30.20 in 10.0 mi Calm Calm - N/A   Clear
2:35 AM 60.8 °F - 60.8 °F 100% 30.20 in 10.0 mi Calm Calm - N/A   Clear
2:55 AM 60.8 °F - 60.8 °F 100% 30.20 in 10.0 mi Calm Calm - N/A   Clear
3:15 AM 60.8 °F - 60.8 °F 100% 30.20 in 10.0 mi Calm Calm - N/A   Clear
3:35 AM 60.8 °F - 60.8 °F 100% 30.20 in 7.0 mi Calm Calm - N/A   Clear
3:55 AM 60.8 °F - 60.8 °F 100% 30.20 in 10.0 mi Calm Calm - N/A   Clear
4:15 AM 60.8 °F - 60.8 °F 100% 30.19 in 10.0 mi Calm Calm - N/A   Clear
4:35 AM 60.8 °F - 60.8 °F 100% 30.19 in 7.0 mi Calm Calm - N/A   Clear
4:55 AM 60.8 °F - 60.8 °F 100% 30.20 in 10.0 mi Calm Calm - N/A   Clear
5:15 AM 59.0 °F - 59.0 °F 100% 30.20 in 7.0 mi Calm Calm - N/A   Clear
5:35 AM 59.0 °F - 59.0 °F 100% 30.20 in 4.0 mi Calm Calm - N/A   Clear
5:55 AM 59.0 °F - 59.0 °F 100% 30.20 in 3.0 mi Calm Calm - N/A   Scattered Clouds
6:15 AM 59.0 °F - 59.0 °F 100% 30.20 in 7.0 mi Calm Calm - N/A   Clear
6:35 AM 59.0 °F - 59.0 °F 100% 30.20 in 4.0 mi Calm Calm - N/A   Clear
6:55 AM 57.2 °F - 57.2 °F 100% 30.21 in 7.0 mi Calm Calm - N/A   Clear
7:15 AM 59.0 °F - 59.0 °F 100% 30.21 in 5.0 mi Calm Calm - N/A   Clear
7:35 AM 57.2 °F - 57.2 °F 100% 30.22 in 7.0 mi Calm Calm - N/A   Clear
7:55 AM 59.0 °F - 59.0 °F 100% 30.22 in 7.0 mi Calm Calm - N/A   Clear
8:15 AM 60.8 °F - 60.8 °F 100% 30.23 in 10.0 mi Calm Calm - N/A   Clear
8:35 AM 62.6 °F - 62.6 °F 100% 30.23 in 10.0 mi Calm Calm - N/A   Clear
8:55 AM 62.6 °F - 62.6 °F 100% 30.23 in 10.0 mi Calm Calm - N/A   Clear
9:15 AM 66.2 °F - 62.6 °F 88% 30.23 in 10.0 mi Calm Calm - N/A   Clear
9:35 AM 68.0 °F - 64.4 °F 88% 30.23 in 10.0 mi Calm Calm - N/A   Clear
9:55 AM 69.8 °F - 64.4 °F 83% 30.23 in 10.0 mi Calm Calm - N/A   Clear
10:15 AM 71.6 °F - 64.4 °F 78% 30.22 in 10.0 mi ESE 3.5 mph - N/A   Clear
10:35 AM 73.4 °F - 64.4 °F 73% 30.23 in 10.0 mi Calm Calm - N/A   Clear
10:55 AM 75.2 °F - 62.6 °F 65% 30.23 in 10.0 mi ESE 3.5 mph - N/A   Clear
11:15 AM 75.2 °F - 62.6 °F 65% 30.23 in 10.0 mi Calm Calm - N/A   Clear
11:35 AM 77.0 °F - 62.6 °F 61% 30.23 in 10.0 mi East 3.5 mph - N/A   Clear
11:55 AM 78.8 °F - 62.6 °F 57% 30.22 in 10.0 mi NNE 5.8 mph - N/A   Clear
12:15 PM 78.8 °F - 60.8 °F 54% 30.22 in 10.0 mi Calm Calm - N/A   Clear
12:35 PM 80.6 °F 81.5 °F 60.8 °F 51% 30.22 in 10.0 mi ENE 8.1 mph - N/A   Scattered Clouds
12:55 PM 78.8 °F - 59.0 °F 51% 30.21 in 10.0 mi NE 8.1 mph - N/A   Scattered Clouds
1:15 PM 80.6 °F 81.5 °F 60.8 °F 51% 30.21 in 10.0 mi ENE 6.9 mph - N/A   Scattered Clouds
1:35 PM 80.6 °F 81.5 °F 60.8 °F 51% 30.20 in 10.0 mi East 4.6 mph - N/A   Clear
1:55 PM 80.6 °F 81.5 °F 60.8 °F 51% 30.20 in 10.0 mi East 5.8 mph - N/A   Scattered Clouds
2:15 PM 80.6 °F 81.1 °F 59.0 °F 48% 30.18 in 10.0 mi Calm Calm - N/A   Mostly Cloudy
2:35 PM 82.4 °F 82.9 °F 60.8 °F 48% 30.18 in 10.0 mi ESE 4.6 mph - N/A   Scattered Clouds
2:55 PM 82.4 °F 82.5 °F 59.0 °F 45% 30.17 in 10.0 mi SSE 4.6 mph - N/A   Scattered Clouds
3:15 PM 80.6 °F 81.1 °F 59.0 °F 48% 30.16 in 10.0 mi SSE 3.5 mph - N/A   Scattered Clouds
3:35 PM 82.4 °F 82.5 °F 59.0 °F 45% 30.15 in 10.0 mi Calm Calm - N/A   Mostly Cloudy
3:55 PM 82.4 °F 82.5 °F 59.0 °F 45% 30.15 in 10.0 mi East 5.8 mph - N/A   Overcast
4:15 PM 82.4 °F 82.0 °F 57.2 °F 42% 30.14 in 10.0 mi Calm Calm - N/A   Scattered Clouds
4:35 PM 82.4 °F 81.7 °F 55.4 °F 39% 30.14 in 10.0 mi Calm Calm - N/A   Clear
4:55 PM 82.4 °F 81.7 °F 55.4 °F 39% 30.13 in 10.0 mi Calm Calm - N/A   Clear
5:15 PM 82.4 °F 82.0 °F 57.2 °F 42% 30.13 in 10.0 mi East 3.5 mph - N/A   Clear
5:35 PM 82.4 °F 81.7 °F 55.4 °F 39% 30.13 in 10.0 mi Calm Calm - N/A   Clear
5:55 PM 82.4 °F 82.0 °F 57.2 °F 42% 30.13 in 10.0 mi East 3.5 mph - N/A   Clear
6:15 PM 82.4 °F 82.0 °F 57.2 °F 42% 30.12 in 10.0 mi East 3.5 mph - N/A   Clear
6:35 PM 80.6 °F 81.1 °F 59.0 °F 48% 30.12 in 10.0 mi Calm Calm - N/A   Clear
6:55 PM 82.4 °F 82.5 °F 59.0 °F 45% 30.12 in 10.0 mi Calm Calm - N/A   Scattered Clouds
7:15 PM 80.6 °F 81.1 °F 59.0 °F 48% 30.12 in 10.0 mi Calm Calm - N/A   Mostly Cloudy
7:35 PM 80.6 °F 81.1 °F 59.0 °F 48% 30.12 in 10.0 mi Calm Calm - N/A   Scattered Clouds
7:55 PM 77.0 °F - 60.8 °F 57% 30.12 in 10.0 mi Calm Calm - N/A   Scattered Clouds
8:15 PM 73.4 °F - 62.6 °F 69% 30.13 in 10.0 mi NE 3.5 mph - N/A   Scattered Clouds
8:35 PM 71.6 °F - 62.6 °F 73% 30.13 in 10.0 mi ENE 3.5 mph - N/A   Mostly Cloudy
8:55 PM 71.6 °F - 64.4 °F 78% 30.13 in 10.0 mi Calm Calm - N/A   Scattered Clouds
9:15 PM 69.8 °F - 64.4 °F 83% 30.14 in 10.0 mi Calm Calm - N/A   Scattered Clouds
9:35 PM 69.8 °F - 62.6 °F 78% 30.14 in 10.0 mi Calm Calm - N/A   Clear
9:55 PM 69.8 °F - 62.6 °F 78% 30.13 in 10.0 mi Calm Calm - N/A   Clear
10:15 PM 68.0 °F - 64.4 °F 88% 30.13 in 10.0 mi Calm Calm - N/A   Clear
10:35 PM 68.0 °F - 64.4 °F 88% 30.13 in 10.0 mi Calm Calm - N/A   Clear
10:55 PM 68.0 °F - 64.4 °F 88% 30.14 in 10.0 mi Calm Calm - N/A   Clear
11:15 PM 68.0 °F - 64.4 °F 88% 30.14 in 10.0 mi Calm Calm - N/A   Clear
11:35 PM 68.0 °F - 64.4 °F 88% 30.14 in 10.0 mi Calm Calm - N/A   Clear
11:55 PM 66.2 °F - 64.4 °F 94% 30.14 in 10.0 mi Calm Calm - N/A   Clear